Temporada 2024 · Ronda 3

Australian Grand Prix

2024-03-24 · Albert Park Grand Prix Circuito · Australia · Australian Grand Prix · 58Lap · 306.124km
Ferrari 1:20:26.843
Victoria de equipo 44pt P1 · P2 1-2
Ferrari +2.366
McLaren +5.904
Vuelta rápida
1:19.813 · L56
Abandono
2
Lewis Hamilton L15 Max Verstappen L3
Clima
21°/38°
media aire/pista · seco · humedad 44%
Coche de seguridad
2
desplegado en la vuelta L17, L58
Uso de neumáticos Dirección de carrera
Storylines · This Grand Prix & circuit
Más victorias en este GP
Michael Schumacher 4 victorias
Conversión pole-victoria 13/29 44.8%
Most SC/VSC · all-time P1
Final más ajustado · all-time P9
Most lead changes · all-time P1
Circuito Info
Albert Park Grand Prix Circuito Melbourne, Australia
58Lap 306.124km 29 carreras held (1996–) Récord de vuelta 1:19.813 · Charles Leclerc (2024)
Récords Watch · Active drivers ranked at this Grand Prix
P4 Lewis Hamilton 2 victorias · → Sebastian Vettel -1
P12 Fernando Alonso 1 victorias · → Nico Rosberg -1
P12 Valtteri Bottas 1 victorias · → Nico Rosberg -1
P1 Lewis Hamilton 10 · GP #1
P12 Charles Leclerc 3 · → Nico Rosberg -1
P1 Fernando Alonso 21 salidas · GP #1
P4 Lewis Hamilton 18 salidas · → Rubens Barrichello -1
P11 Nico Hülkenberg 13 salidas · → Giancarlo Fisichella -1
Carrera Trace · position by lap
VSC · vueltas 17–18 VSC · vuelta 58 salida parada SG 1 6 11 16 21 26 31 36 41 46 51 56 FIN Sainz · parada en boxes L16 Sainz · parada en boxes L41 Sainz SAI Sainz SAI Leclerc · parada en boxes L9 Leclerc · parada en boxes L34 Leclerc LEC Leclerc LEC Norris · parada en boxes L14 Norris · parada en boxes L40 Norris NOR Norris NOR Piastri · parada en boxes L9 Piastri · parada en boxes L39 Piastri PIA Piastri PIA Pérez · parada en boxes L14 Pérez · parada en boxes L35 Pérez PER Pérez PER Stroll · parada en boxes L8 Stroll · parada en boxes L37 Stroll STR Stroll STR Tsunoda · parada en boxes L9 Tsunoda · parada en boxes L36 Tsunoda TSU Tsunoda TSU Alonso · parada en boxes L17 Alonso · parada en boxes L41 Alonso ALO Alonso ALO Hülkenberg · parada en boxes L17 Hülkenberg · parada en boxes L35 Hülkenberg HUL Hülkenberg HUL Magnussen · parada en boxes L7 Magnussen · parada en boxes L33 Magnussen MAG Magnussen MAG Albon · parada en boxes L6 Albon · parada en boxes L27 Albon ALB Albon ALB Ricciardo · parada en boxes L5 Ricciardo · parada en boxes L29 Ricciardo RIC Ricciardo RIC Gasly · parada en boxes L17 Gasly · parada en boxes L41 Gasly · +5s sumado tras la carrera Gasly GAS Gasly GAS Bottas · parada en boxes L8 Bottas · parada en boxes L36 Bottas BOT Bottas BOT Zhou · parada en boxes L6 Zhou · parada en boxes L35 Zhou ZHO Zhou ZHO Ocon · parada en boxes L9 Ocon · parada en boxes L16 Ocon · parada en boxes L42 Ocon OCO Ocon OCO Russell · parada en boxes L8 Russell · parada en boxes L45 Russell · detenido L56 · clasificado P17 Russell RUS Russell RUS Hamilton · parada en boxes L7 Hamilton · abandono L15 Hamilton HAM Hamilton HAM Verstappen · abandono L3 Verstappen VER Verstappen VER
SC·VSC parada en boxes sanción cumplida en boxes SG Parrilla de salida FIN clasificación oficial sanción sumada tras la carrera coche detenido posición en cada vuelta (desde 1996)
PosPilotoTeamParrillaVueltaTiempo / EstadoPuntos
1 55 Carlos Sainz Ferrari 2 58 1:20:26.843 25
2 16 Charles Leclerc FL Ferrari 4 58 +2.366 19
3 4 Lando Norris McLaren 3 58 +5.904 15
4 81 Oscar Piastri McLaren 5 58 +35.770 12
5 11 Sergio Pérez Red Bull 6 58 +56.309 10
6 18 Lance Stroll Aston Martin 9 58 +1:33.222 8
7 22 Yuki Tsunoda RB F1 Team 8 58 +1:35.601 6
8 14 Fernando Alonso Aston Martin 10 58 +1:40.992 4
9 27 Nico Hülkenberg Haas F1 Team 16 58 +1:44.553 2
10 20 Kevin Magnussen Haas F1 Team 14 57 +4.081 1
11 23 Alexander Albon Williams 12 57 +5.009
12 3 Daniel Ricciardo RB F1 Team 18 57 +11.508
13 10 Pierre Gasly Alpine F1 Team 17 57 +40.953
14 77 Valtteri Bottas Sauber 13 57 +42.326
15 24 Guanyu Zhou Sauber 19 57 +44.293
16 31 Esteban Ocon Alpine F1 Team 15 57 +53.979
17 63 George Russell Mercedes 7 56
R 44 Lewis Hamilton Mercedes 11 15 Retired
R 1 Max Verstappen Red Bull 1 3 Retired
PosPilotoTeamQ1Q2Q3Diferencia con la pole
1 1 Max Verstappen Red Bull 1:16.819 1:16.387 1:15.915 POLE Q3
2 55 Carlos Sainz Ferrari 1:16.731 1:16.189 1:16.185 +0.270 Q3
3 11 Sergio Pérez Red Bull 1:16.805 1:16.631 1:16.274 +0.359 Q3
4 4 Lando Norris McLaren 1:17.430 1:16.750 1:16.315 +0.400 Q3
5 16 Charles Leclerc Ferrari 1:16.984 1:16.304 1:16.435 +0.389 Q2
6 81 Oscar Piastri McLaren 1:17.369 1:16.601 1:16.572 +0.657 Q3
7 63 George Russell Mercedes 1:17.062 1:16.901 1:16.724 +0.809 Q3
8 22 Yuki Tsunoda RB F1 Team 1:17.356 1:16.791 1:16.788 +0.873 Q3
9 18 Lance Stroll Aston Martin 1:17.376 1:16.780 1:17.072 +0.865 Q2
10 14 Fernando Alonso Aston Martin 1:16.991 1:16.710 1:17.552 +0.795 Q2
11 44 Lewis Hamilton Mercedes 1:17.499 1:16.960 +1.045 Q2
12 23 Alexander Albon Williams 1:17.130 1:17.167 +1.215 Q1
13 77 Valtteri Bottas Sauber 1:17.543 1:17.340 +1.425 Q2
14 20 Kevin Magnussen Haas F1 Team 1:17.709 1:17.427 +1.512 Q2
15 31 Esteban Ocon Alpine F1 Team 1:17.617 1:17.697 +1.702 Q1
16 27 Nico Hülkenberg Haas F1 Team 1:17.976 +2.061 Q1
17 10 Pierre Gasly Alpine F1 Team 1:17.982 +2.067 Q1
18 3 Daniel Ricciardo RB F1 Team 1:18.085 +2.170 Q1
19 24 Guanyu Zhou Sauber 1:18.188 +2.273 Q1
Parrilla de salida
Oficial
Final grid as clasificado, including any desde el pit lane salidas. Source: Jolpica-F1. The arrow compares the grid slot with the clasificación classification; hover a drop to see the stewards document behind it.
No hay datos de esta sesión.
PosPilotoMejor vueltaDiferenciaVueltas
1 4 Lando Norris 1:18.564 23
2 1 Max Verstappen 1:18.582 +0.018 19
3 63 George Russell 1:18.597 +0.033 21
4 16 Charles Leclerc 1:18.599 +0.035 22
5 22 Yuki Tsunoda 1:18.621 +0.057 26
6 11 Sergio Pérez 1:18.642 +0.078 23
7 18 Lance Stroll 1:18.667 +0.103 26
8 55 Carlos Sainz 1:18.686 +0.122 21
9 44 Lewis Hamilton 1:18.771 +0.207 20
10 81 Oscar Piastri 1:18.918 +0.354 25
11 3 Daniel Ricciardo 1:19.274 +0.710 25
12 23 Alexander Albon 1:19.443 +0.879 11
13 20 Kevin Magnussen 1:19.489 +0.925 21
14 2 Logan Sargeant 1:19.519 +0.955 22
15 31 Esteban Ocon 1:19.561 +0.997 25
16 27 Nico Hülkenberg 1:19.604 +1.040 21
17 10 Pierre Gasly 1:19.622 +1.058 25
18 14 Fernando Alonso 1:19.716 +1.152 16
19 24 Guanyu Zhou 1:19.989 +1.425 23
20 77 Valtteri Bottas 1:20.014 +1.450 21
Classified by best lap · source OpenF1 (2023+)
PosPilotoMejor vueltaDiferenciaVueltas
1 16 Charles Leclerc 1:17.277 26
2 1 Max Verstappen 1:17.658 +0.381 21
3 55 Carlos Sainz 1:17.707 +0.430 25
4 18 Lance Stroll 1:17.822 +0.545 29
5 14 Fernando Alonso 1:17.912 +0.635 31
6 63 George Russell 1:17.951 +0.674 24
7 81 Oscar Piastri 1:18.077 +0.800 29
8 11 Sergio Pérez 1:18.090 +0.813 33
9 4 Lando Norris 1:18.155 +0.878 23
10 22 Yuki Tsunoda 1:18.188 +0.911 27
11 24 Guanyu Zhou 1:18.421 +1.144 32
12 3 Daniel Ricciardo 1:18.534 +1.257 30
13 2 Logan Sargeant 1:18.578 +1.301 23
14 77 Valtteri Bottas 1:18.585 +1.308 32
15 10 Pierre Gasly 1:18.691 +1.414 33
16 27 Nico Hülkenberg 1:18.702 +1.425 28
17 31 Esteban Ocon 1:18.705 +1.428 32
18 44 Lewis Hamilton 1:18.834 +1.557 23
19 20 Kevin Magnussen 1:19.275 +1.998 31
Classified by best lap · source OpenF1 (2023+)
PosPilotoMejor vueltaDiferenciaVueltas
1 16 Charles Leclerc 1:16.714 22
2 1 Max Verstappen 1:16.734 +0.020 28
3 55 Carlos Sainz 1:16.791 +0.077 20
4 44 Lewis Hamilton 1:16.806 +0.092 20
5 63 George Russell 1:16.886 +0.172 23
6 14 Fernando Alonso 1:16.997 +0.283 20
7 11 Sergio Pérez 1:17.014 +0.300 28
8 81 Oscar Piastri 1:17.087 +0.373 19
9 18 Lance Stroll 1:17.341 +0.627 22
10 4 Lando Norris 1:17.490 +0.776 22
11 22 Yuki Tsunoda 1:17.673 +0.959 19
12 77 Valtteri Bottas 1:17.752 +1.038 20
13 23 Alexander Albon 1:17.759 +1.045 23
14 24 Guanyu Zhou 1:17.876 +1.162 19
15 31 Esteban Ocon 1:17.920 +1.206 18
16 27 Nico Hülkenberg 1:17.941 +1.227 17
17 20 Kevin Magnussen 1:17.961 +1.247 18
18 3 Daniel Ricciardo 1:17.963 +1.249 20
19 10 Pierre Gasly 1:18.390 +1.676 19
Classified by best lap · source OpenF1 (2023+)
#PilotoTiempo de vueltaVuelta
1 16 Charles Leclerc 1:19.813 L56
2 4 Lando Norris 1:19.915 L49
3 16 Charles Leclerc 1:19.925 L50
4 4 Lando Norris 1:19.959 L52
5 4 Lando Norris 1:19.971 L46
6 16 Charles Leclerc 1:19.999 L47
7 55 Carlos Sainz 1:20.031 L48
8 55 Carlos Sainz 1:20.083 L51
9 4 Lando Norris 1:20.107 L54
10 16 Charles Leclerc 1:20.144 L49
Top 10 más rápida race vueltas — #1 is the más rápida lap of la carrera(FL).
Paradas · cómo se comparan
20s 25s 30s 35s 40s 45s mediana 18.0s Sergio Pérez · L35 · 17.222s Charles Leclerc · L34 · 17.308s Charles Leclerc · L9 · 17.409s Yuki Tsunoda · L36 · 17.535s Oscar Piastri · L9 · 17.573s Lewis Hamilton · L7 · 17.596s Carlos Sainz · L16 · 17.599s Lando Norris · L40 · 17.653s Pierre Gasly · L41 · 17.682s Carlos Sainz · L41 · 17.740s Alexander Albon · L27 · 17.745s Daniel Ricciardo · L29 · 17.751s Alexander Albon · L6 · 17.755s Lando Norris · L14 · 17.776s Lance Stroll · L8 · 17.901s George Russell · L45 · 17.964s Lance Stroll · L37 · 17.977s Fernando Alonso · L41 · 17.995s Esteban Ocon · L42 · 18.007s George Russell · L8 · 18.046s Sergio Pérez · L14 · 18.112s Nico Hülkenberg · L35 · 18.145s Kevin Magnussen · L33 · 18.151s Fernando Alonso · L17 · 18.160s Daniel Ricciardo · L5 · 18.265s Esteban Ocon · L9 · 18.287s Kevin Magnussen · L7 · 18.301s Nico Hülkenberg · L17 · 18.320s Yuki Tsunoda · L9 · 18.523s Oscar Piastri · L39 · 18.533s Valtteri Bottas · L36 · 18.938s Guanyu Zhou · L6 · 19.032s Pierre Gasly · L17 · 20.316s Esteban Ocon · L16 · 30.626s Guanyu Zhou · L35 · 36.866s Valtteri Bottas · L8 · 46.969s
más rápida 17.222s Sergio Pérez más lenta 46.969s Valtteri Bottas tiempo de paso por el desde el pit lane — un punto por parada
PilotoParadaVueltaTiempoPaso por el desde el pit lane
3 Daniel Ricciardo 1 5 15:10:25 18.265s
23 Alexander Albon 1 6 15:11:45 17.755s
24 Guanyu Zhou 1 6 15:11:49 19.032s
44 Lewis Hamilton 1 7 15:13:04 17.596s
20 Kevin Magnussen 1 7 15:13:08 18.301s
77 Valtteri Bottas 1 8 15:14:30 46.969s
18 Lance Stroll 1 8 15:14:26 17.901s
63 George Russell 1 8 15:14:23 18.046s
22 Yuki Tsunoda 1 9 15:15:50 18.523s
81 Oscar Piastri 1 9 15:15:43 17.573s
31 Esteban Ocon 1 9 15:15:55 18.287s
16 Charles Leclerc 1 9 15:15:42 17.409s
4 Lando Norris 1 14 15:22:37 17.776s
11 Sergio Pérez 1 14 15:22:45 18.112s
55 Carlos Sainz 1 16 15:25:14 17.599s
31 Esteban Ocon 2 16 15:25:58 30.626s
14 Fernando Alonso 1 17 15:27:06 18.160s
10 Pierre Gasly 1 17 15:27:32 20.316s
27 Nico Hülkenberg 1 17 15:27:28 18.320s
23 Alexander Albon 2 27 15:41:35 17.745s
3 Daniel Ricciardo 2 29 15:44:29 17.751s
20 Kevin Magnussen 2 33 15:49:58 18.151s
16 Charles Leclerc 2 34 15:50:35 17.308s
24 Guanyu Zhou 2 35 15:52:50 36.866s
27 Nico Hülkenberg 2 35 15:52:40 18.145s
11 Sergio Pérez 2 35 15:52:18 17.222s
22 Yuki Tsunoda 2 36 15:53:59 17.535s
77 Valtteri Bottas 2 36 15:54:30 18.938s
18 Lance Stroll 2 37 15:55:19 17.977s
81 Oscar Piastri 2 39 15:57:32 18.533s
4 Lando Norris 2 40 15:58:46 17.653s
14 Fernando Alonso 2 41 16:00:37 17.995s
55 Carlos Sainz 2 41 15:59:57 17.740s
10 Pierre Gasly 2 41 16:01:21 17.682s
31 Esteban Ocon 3 42 16:02:51 18.007s
63 George Russell 2 45 16:06:07 17.964s
paradas
SG 10 20 30 40 50 L58
55
2
M15
H25
H18
16
2
M8
H25
H25
4
2
M13
H26·+1
H19·+1
81
2
M8
H30·+1
H20·+1
11
2
M13
H21
H24
18
2
M7·+1
H29·+1
H22
22
2
M8
H27
H23
14
2
H16·+1
M24·+1
H18·+1
27
2
H16
M18
H24
20
2
M6
H26
H25
23
2
M5
H21
H31
3
2
S4
H24
H29
10
2
M16
H24
H17
77
2
M7·+1
H28
H22
24
2
S5·+1
H29·+1
H23
31
3
M8
H7
H26
H16·+7
63
2
M7
H37
H12
44
1
S6
H9
1
0
M3
S Soft M Medium H Hard I Intermediate W Wet SC·VSC parada en boxes sanción cumplida en boxes
Carrera · ancho de barra = vueltas con ese juego, ·+N = montado usado con N vueltas previas · fuente OpenF1 (2023+)
Compuestos designados para este Gran Premio
C3 Duro C4 Medio C5 Blando
Pirelli designa tres de sus compuestos secos para cada prueba; cuanto mayor es el número C, más blando es el neumático. Documento FIA ↗
Más puestos ganados en pista
10
+20
P17→P13
27
+16
P16→P9
11
+12
P6→P5
14
+12
P10→P8
23
+12
P12→P11
3
+12
P18→P12
31
+12
P15→P16
24
+11
P19→P15
Más puestos perdidos
Pierre Gasly −16 Esteban Ocon −13 Sergio Pérez −10
Carrera · Suma de posiciones ganadas en pista vuelta a vuelta — se excluyen la vuelta de salida y las vueltas de boxes propias. Datos de vueltas de carrera desde 1996.
PilotoTipoVueltaCumplidaImpuestaMotivo
77 Valtteri Bottas Fine €5,000 Pit stop equipment in the fast lane. (The competitor (Kick Sauber F1 Team) is fined €5,000.) Documento FIA ↗
€5,000 Pit stop equipment in the fast lane. (The competitor (Kick Sauber F1 Team) is fined €5,000.) Documento FIA ↗
10 Pierre Gasly Time penalty 48 Tras la carrera +5s Car 10 crossed the yellow line at Pit Exit. (5 second time penalty. (5 seconds added to elapsed Carrera time).) Documento FIA ↗
Vuelta 48 · Cumplida Tras la carrera · +5s Car 10 crossed the yellow line at Pit Exit. (5 second time penalty. (5 seconds added to elapsed Carrera time).) Documento FIA ↗
14 Fernando Alonso Drive-through 3pt Incident in Turns 6-7. (Drive through penalty imposed after the Carrera. Converted to 20 seconds added to the elapsed time in t) Documento FIA ↗
3pt Incident in Turns 6-7. (Drive through penalty imposed after the Carrera. Converted to 20 seconds added to the elapsed time in t) Documento FIA ↗
10 Pierre Gasly Vueltas eliminadas 42 TRACK LIMITS
Vuelta 42 TRACK LIMITS
Vuelta = vuelta en que se impuso la sanción · Cumplida = vuelta en que se cumplió en boxes (en blanco: se sumó al tiempo de carrera)
Time, drive-through and stop-go penalties come from race control messages (OpenF1, 2023+). Parrilla penalties never appear there — the stewards publish them as documents after the session — so they are worked back from the starting grid against the clasificación classification, which gives places actually lost rather than the figure written in the decision.
PilotoTipoVueltaCumplidaImpuestaMotivo
24 Guanyu Zhou Pit lane start The front wing specification has been changed while under Parc Ferme. (Required to start la carrera from the desde el pit lane.) Documento FIA ↗
The front wing specification has been changed while under Parc Ferme. (Required to start la carrera from the desde el pit lane.) Documento FIA ↗
11 Sergio Pérez Sanción de parrilla ▼3 Car 11 unnecessarily impeding Car 27 in Turn 13. (Drop of 3 grid positions for the next Carrera in which the driver participates.) Documento FIA ↗
▼3 Car 11 unnecessarily impeding Car 27 in Turn 13. (Drop of 3 grid positions for the next Carrera in which the driver participates.) Documento FIA ↗
10 Pierre Gasly Amonestación Car 10 crossed the yellow line at Pit Exit. (Amonestación (Driving). This is the driver’s 1st reprimand of the season) Documento FIA ↗
Car 10 crossed the yellow line at Pit Exit. (Amonestación (Driving). This is the driver’s 1st reprimand of the season) Documento FIA ↗
Vuelta = vuelta en que se impuso la sanción · Cumplida = vuelta en que se cumplió en boxes (en blanco: se sumó al tiempo de carrera)
Time, drive-through and stop-go penalties come from race control messages (OpenF1, 2023+). Parrilla penalties never appear there — the stewards publish them as documents after the session — so they are worked back from the starting grid against the clasificación classification, which gives places actually lost rather than the figure written in the decision.
PilotoTipoVueltaCumplidaImpuestaMotivo
55 Carlos Sainz Amonestación Completed a practice start before taking the end of session signal. (Amonestación (Driving).) Documento FIA ↗
Completed a practice start before taking the end of session signal. (Amonestación (Driving).) Documento FIA ↗
Vuelta = vuelta en que se impuso la sanción · Cumplida = vuelta en que se cumplió en boxes (en blanco: se sumó al tiempo de carrera)
Time, drive-through and stop-go penalties come from race control messages (OpenF1, 2023+). Parrilla penalties never appear there — the stewards publish them as documents after the session — so they are worked back from the starting grid against the clasificación classification, which gives places actually lost rather than the figure written in the decision.
DocTítuloAsuntoPublished(CET)
Event Notes - Pirelli Preview ↗ 2024-03-19 05:01
2024-03-19 05:01 CET
Post-Carrera Checks on Car 01, Saudi Arabian GP ↗ 1 Max Verstappen 2024-03-20 08:40
1 Max Verstappen 2024-03-20 08:40 CET
Carrera Director's Event Notes ↗ 2024-03-21 02:46
2024-03-21 02:46 CET
Event Notes - Circuito Map, Pit Lane and Red Zone ↗ 2024-03-21 05:16
2024-03-21 05:16 CET
Event Notes - Pit Lane Drawing V2 ↗ 2024-03-21 06:50
2024-03-21 06:50 CET
PU elements usados per driver up to now ↗ 2024-03-21 22:48
2024-03-21 22:48 CET
RNCs usados per driver up to now ↗ 2024-03-21 22:49
2024-03-21 22:49 CET
Self scrutineering ↗ 2024-03-22 00:32
2024-03-22 00:32 CET
Car Presentation Submissions ↗ 2024-03-22 00:33
2024-03-22 00:33 CET
Entry List ↗ 2024-03-22 00:43
2024-03-22 00:43 CET
New PU elements for this Competition ↗ 2024-03-22 02:45
2024-03-22 02:45 CET
New RNCs for this Competition ↗ 2024-03-22 02:47
2024-03-22 02:47 CET
P1 Classification ↗ 2024-03-22 03:50
2024-03-22 03:50 CET
P2 Classification ↗ 2024-03-22 07:15
2024-03-22 07:15 CET
P1 and P2 scrutineering ↗ 2024-03-22 09:42
2024-03-22 09:42 CET
Carrera Director's Note - SC2-SC1 Time ↗ 2024-03-22 10:02
2024-03-22 10:02 CET
Event Notes - Pirelli Preview V2 ↗ 2024-03-22 23:41
2024-03-22 23:41 CET
Curfew ↗ 2024-03-22 23:47
2024-03-22 23:47 CET
RNC usados outside allocation ↗ 2024-03-22 23:55
2024-03-22 23:55 CET
Post-Clasificación Procedure ↗ 2024-03-23 01:16
2024-03-23 01:16 CET
Information - Car 23 ↗ 23 Alexander Albon 2024-03-23 01:46
23 Alexander Albon 2024-03-23 01:46 CET
New PU elements for this Competition ↗ 2024-03-23 03:16
2024-03-23 03:16 CET
P3 Classification ↗ 2024-03-23 03:46
2024-03-23 03:46 CET
Summons - Car 55 - Alleged failure to follow Carrera Director's instructions ↗ 55 Carlos Sainz 2024-03-23 04:09
55 Carlos Sainz 2024-03-23 04:09 CET
Infringement - Car 55 - Failure to follow Carrera Director's instructions ↗ 55 Carlos Sainz 2024-03-23 04:44
55 Carlos Sainz 2024-03-23 04:44 CET
New RNCs for this Competition ↗ 2024-03-23 06:18
2024-03-23 06:18 CET
Clasificación Deleted Vuelta Times ↗ 2024-03-23 07:18
2024-03-23 07:18 CET
Provisional Clasificación Classification ↗ 2024-03-23 07:19
2024-03-23 07:19 CET
Clasificación SC2-SC1 Times ↗ 2024-03-23 07:31
2024-03-23 07:31 CET
Summons - Car 11 - Alleged Impeding of Car 27 ↗ 11 Sergio Pérez 2024-03-23 07:35
11 Sergio Pérez 2024-03-23 07:35 CET
Summons - Car 27 - Alleged Impeding by Car 11 ↗ 27 Nico Hülkenberg 2024-03-23 07:36
27 Nico Hülkenberg 2024-03-23 07:36 CET
Infringement - Car 10 - Crossing the line at Pit Exit ↗ 10 Pierre Gasly 2024-03-23 07:53
10 Pierre Gasly 2024-03-23 07:53 CET
Infringement - Car 11 - Impeding of Car 27 ↗ 11 Sergio Pérez 2024-03-23 09:09
11 Sergio Pérez 2024-03-23 09:09 CET
P3 and Clasificación scrutineering ↗ 2024-03-23 10:19
2024-03-23 10:19 CET
Final Clasificación Classification ↗ 2024-03-23 10:35
2024-03-23 10:35 CET
Provisional Starting Parrilla ↗ 2024-03-23 10:40
2024-03-23 10:40 CET
Parc Fermé issues ↗ 2024-03-24 02:02
2024-03-24 02:02 CET
Pre-Carrera Procedure ↗ 2024-03-24 02:05
2024-03-24 02:05 CET
Post-Carrera Procedure ↗ 2024-03-24 02:06
2024-03-24 02:06 CET
Infringement - Car 24 - Changes made during Parc Ferme ↗ 24 Guanyu Zhou 2024-03-24 02:55
24 Guanyu Zhou 2024-03-24 02:55 CET
Parts and parameters been replaced and or changed during Parc Fermé ↗ 2024-03-24 02:57
2024-03-24 02:57 CET
Final Starting Parrilla ↗ 2024-03-24 03:00
2024-03-24 03:00 CET
Summons - Sauber - Car 77 Pit Stop ↗ 77 Valtteri Bottas 2024-03-24 06:34
77 Valtteri Bottas 2024-03-24 06:34 CET
Provisional Carrera Classification ↗ 2024-03-24 06:56
2024-03-24 06:56 CET
Summons - Car 14 - Alleged incident with Car 63 ↗ 14 Fernando Alonso 2024-03-24 06:56
14 Fernando Alonso 2024-03-24 06:56 CET
Summons - Car 63 - Alleged incident with Car 14 ↗ 63 George Russell 2024-03-24 07:02
63 George Russell 2024-03-24 07:02 CET
Carrera Deleted Vuelta Times ↗ 2024-03-24 07:15
2024-03-24 07:15 CET
Infringement - Car 10 - Crossing the line at Pit Exit ↗ 10 Pierre Gasly 2024-03-24 07:32
10 Pierre Gasly 2024-03-24 07:32 CET
Carrera scrutineering ↗ 2024-03-24 08:56
2024-03-24 08:56 CET
Infringement - Sauber - Car 77 Pit Stop ↗ 77 Valtteri Bottas 2024-03-24 09:31
77 Valtteri Bottas 2024-03-24 09:31 CET
Infringement - Car 14 - Potentially dangerous driving ↗ 14 Fernando Alonso 2024-03-24 09:52
14 Fernando Alonso 2024-03-24 09:52 CET
Final Carrera Classification ↗ 2024-03-24 10:06
2024-03-24 10:06 CET
Campeonato Puntos ↗ 2024-03-24 10:15
2024-03-24 10:15 CET
FIA official decisions and documents (fia.com) · PDF original PDF links
Record Basis · Calculation basis
Carrera order is the final classification(post-race penalties applied) · clasificación session data 2003+ · lap times 1996+ · pit stops 2012+ (pit-lane transit, not stationary time) · Abandono = Finished(Finished·+N Vueltas) non-Finished statuses
Fuentes de datos: Jolpica-F1 (Ergast compatible API) · weather·Dirección de carrera OpenF1 (2023+) · Last fetched: 2026-09-05 14:15